EDT,Max TemperatureF,Mean TemperatureF,Min TemperatureF,Max Dew PointF,MeanDew PointF,Min DewpointF,Max Humidity, Mean Humidity, Min Humidity, Max Sea Level PressureIn, Mean Sea Level PressureIn, Min Sea Level PressureIn, Max VisibilityMiles, Mean VisibilityMiles, Min VisibilityMiles, Max Wind SpeedMPH, Mean Wind SpeedMPH, Max Gust SpeedMPH,PrecipitationIn, CloudCover, Events, WindDirDegrees
2013-5-1,75,58,43,43,36,30,70,41,23,30.45,30.39,30.31,10,10,3,7,4,9,0.00,0,,202
2013-5-2,76,62,47,42,36,30,58,40,24,30.44,30.40,30.35,10,10,5,14,4,,0.00,2,,125
2013-5-3,69,54,38,38,33,28,67,45,24,30.53,30.42,30.34,10,10,10,10,6,,0.00,0,,166
2013-5-4,72,56,40,45,37,29,86,48,24,30.36,30.29,30.19,10,10,4,8,4,,0.00,0,,263
2013-5-5,75,60,46,38,32,24,60,36,15,30.27,30.20,30.12,10,10,7,13,6,17,0.00,0,,165
2013-5-6,77,62,46,40,32,20,60,34,16,30.20,30.14,30.05,10,10,10,9,6,17,0.00,0,,174
2013-5-7,78,62,46,41,32,24,59,33,15,30.14,30.10,30.05,10,10,10,8,5,17,0.00,0,,219
2013-5-8,77,61,45,52,45,38,75,53,26,30.17,30.12,30.06,10,10,10,16,8,24,0.00,2,Rain,185
2013-5-9,72,63,54,55,51,45,88,68,37,30.06,29.93,29.86,10,10,10,12,4,10,0.00,6,Rain,181
2013-5-10,69,60,52,54,51,47,91,74,47,29.99,29.93,29.82,10,9,3,8,2,,0.00,6,Rain,325
2013-5-11,68,59,50,58,52,44,91,77,62,29.82,29.69,29.60,10,9,5,14,6,23,0.00,6,Rain,197
2013-5-12,59,48,39,47,36,21,92,63,31,29.73,29.66,29.60,10,10,10,16,5,26,0.00,6,Rain,238
2013-5-13,45,40,35,31,26,22,80,57,44,30.03,29.85,29.71,10,10,10,20,10,30,0.00,6,Rain,233
2013-5-14,52,42,31,30,24,18,87,53,27,30.08,30.03,29.98,10,10,10,13,4,20,0.00,4,,302
2013-5-15,62,44,28,46,32,23,89,64,27,30.01,29.81,29.59,10,10,5,21,8,29,0.00,3,Rain,181
2013-5-16,66,56,46,46,40,33,90,61,28,29.88,29.67,29.59,10,10,7,23,9,31,0.00,5,,257
2013-5-17,59,51,43,41,38,35,90,67,41,30.22,30.07,29.89,10,9,3,14,7,18,0.00,7,,311
2013-5-18,66,52,39,42,37,31,91,58,27,30.31,30.26,30.22,10,10,10,9,3,,0.00,3,,354
2013-5-19,68,52,35,52,41,32,91,67,28,30.30,30.23,30.11,10,10,7,15,6,21,0.00,2,Rain,177
2013-5-20,68,60,52,58,53,50,91,81,55,30.10,30.01,29.99,10,9,2,10,5,,0.00,6,Rain,232
2013-5-21,60,54,49,53,51,47,94,88,75,30.03,29.94,29.82,10,6,0,31,4,38,0.00,7,Fog-Rain,352
2013-5-22,72,62,51,62,55,49,92,85,69,29.88,29.84,29.78,10,9,2,17,9,24,0.00,7,Rain,162
2013-5-23,76,67,58,64,58,55,91,84,56,29.80,29.77,29.70,10,9,3,16,10,23,0.00,7,Rain,174
2013-5-24,58,50,43,56,44,40,92,90,87,30.01,29.86,29.71,10,6,2,18,8,25,0.00,8,Rain,334
2013-5-25,43,38,34,41,36,32,92,88,86,30.00,29.95,29.86,10,5,2,28,18,41,0.00,8,Rain-Snow,347
2013-5-26,46,40,35,40,36,33,90,84,71,30.05,29.92,29.82,10,8,2,17,11,24,0.00,7,Rain,313
2013-5-27,60,46,32,40,34,29,95,64,32,30.17,30.10,30.03,10,10,0,16,5,23,0.00,1,Fog,265
2013-5-28,69,52,36,45,38,33,90,58,29,30.23,30.18,30.12,10,10,10,10,4,16,0.00,0,,183
2013-5-29,60,56,52,57,50,40,91,80,57,30.13,30.03,29.94,10,10,3,12,7,16,0.00,7,Rain,166
2013-5-30,79,68,58,60,58,56,93,72,48,30.08,30.04,29.97,10,9,2,13,4,20,0.00,5,Rain,251
2013-5-31,87,72,57,61,59,55,91,62,37,30.08,30.01,29.91,10,9,4,15,6,22,0.00,1,,221